This demonstration page uses our WeatherBlox Daily Observations layout. Learn more.

Left ArrowRight Arrow

31.31129, -92.44514

Hourly Observations for December 23, 2019

Temp ( °F °C ) Dew Point ( °F °C ) Humidity (%) Winds ( mph kmh ) Pressure ( in mb ) Visibility ( mi km ) Precip ( " mm )
12:53 am 00:53 Mostly Cloudy 50 10 40 4.4 68 68 NW 13 20 30.04 1017 10 16 0.00 0.00
1:53 am 01:53 Mostly Cloudy 50 10 42 5.6 74 74 NW 14 22 30.04 1017 10 16 0.00 0.00
2:53 am 02:53 Mostly Cloudy 49 9.4 42 5.6 77 77 NW 13 20 30.03 1017 10 16 0.00 0.00
3:41 am 03:41 Partly Cloudy 48 8.9 42 5.6 80 80 NNW 12 19 30.03 1017 10 16 0.00 0.00
3:53 am 03:53 Mostly Clear 48 8.9 42 5.6 80 80 NNW 8 13 30.05 1018 10 16 0.00 0.00
4:08 am 04:08 Mostly Cloudy 48 8.9 43 6.1 83 83 NNW 9 15 30.03 1017 10 16 0.00 0.00
4:49 am 04:49 Mostly Clear 46 8 43 6 87 87 NW 12 19 30.02 1017 10 16 0.00 0.00
4:53 am 04:53 Mostly Clear 47 8.3 42 5.6 83 83 NW 12 19 30.04 1017 10 16 0.00 0.00
5:53 am 05:53 Clear 46 7.8 42 5.6 86 86 WNW 10 17 30.04 1017 10 16 0.00 0.00
6:50 am 06:50 Mostly Cloudy 46 8 43 6 87 87 NW 8 13 30.06 1018 10 16 0.00 0.00
6:53 am 06:53 Mostly Cloudy 46 7.8 42 5.6 86 86 NW 9 15 30.07 1018 10 16 0.00 0.00
7:53 am 07:53 Mostly Cloudy 47 8.3 42 5.6 83 83 NW 10 17 30.08 1019 10 16 0.00 0.00
8:02 am 08:02 Sunny 47 8.3 43 6.1 86 86 NW 10 17 30.07 1018 10 16 0.00 0.00
8:53 am 08:53 Sunny 51 10.6 44 6.7 77 77 NW 13 20 30.10 1019 10 16 0.00 0.00
9:53 am 09:53 Sunny 54 12.2 44 6.7 69 69 NNW 12 19 30.11 1020 10 16 0.00 0.00
10:53 am 10:53 Sunny 60 15.6 45 7.2 58 58 N 9 15 30.09 1019 10 16 0.00 0.00
11:53 am 11:53 Sunny 64 17.8 46 7.8 52 52 N 12 19 30.06 1018 10 16 0.00 0.00
12:53 pm 12:53 Sunny 65 18.3 45 7.2 49 49 NW 12 19 30.03 1017 10 16 0.00 0.00
1:53 pm 13:53 Sunny 66 18.9 46 7.8 49 49 NNW 14 22 30.02 1017 10 16 0.00 0.00
2:53 pm 14:53 Sunny 66 18.9 45 7.2 47 47 NW 14 22 30.01 1016 10 16 0.00 0.00
3:53 pm 15:53 Sunny 66 18.9 45 7.2 47 47 NNW 13 20 30.02 1017 10 16 0.00 0.00
4:53 pm 16:53 Sunny 64 17.8 45 7.2 50 50 N 8 13 30.04 1017 10 16 0.00 0.00
5:53 pm 17:53 Clear 60 15.6 45 7.2 58 58 NNE 5 7 30.05 1018 10 16 0.00 0.00
6:53 pm 18:53 Clear 56 13.3 45 7.2 67 67 NNE 5 7 30.06 1018 10 16 0.00 0.00
7:53 pm 19:53 Clear 51 10.6 46 7.8 83 83 NW 3 6 30.08 1019 10 16 0.00 0.00
8:53 pm 20:53 Clear 50 10 46 7.8 86 86 Calm 30.08 1019 10 16 0.00 0.00
9:53 pm 21:53 Clear 48 8.9 45 7.2 89 89 WNW 3 6 30.09 1019 10 16 0.00 0.00
10:53 pm 22:53 Clear 46 7.8 44 6.7 93 93 WNW 5 7 30.09 1019 10 16 0.00 0.00
11:53 pm 23:53 Clear 46 7.8 44 6.7 93 93 Calm 30.07 1018 10 16 0.00 0.00

Powered by AerisWeather